Regional Weather Roundup
Issued by NWS

Home | Current Version | Previous Version | Text Only | Print | Product List | Glossary Off
Versions: 1 2 3 4 5 6 7 8 9 10 11 12 13 14 15 16 17 18 19 20 21 22 23 24 25 26 27 28 29 30 31 32 33 34 35 36 37 38 39 40 41 42 43 44 45 46 47 48 49 50

000
ASUS43 KDTX 270801
RWRMI
MICHIGAN HOURLY REGIONAL WEATHER ROUNDUP
NATIONAL WEATHER SERVICE DETROIT/PONTIAC MI
300 AM EST SAT DEC 27 2014

NOTE: "FAIR" INDICATES FEW OR NO CLOUDS BELOW 12,000 FEET WITH NO
SIGNIFICANT WEATHER AND/OR OBSTRUCTION TO VISIBILITY.

MIZ047>049-052>055-059>063-066>070-074>076-081>083-270900-
SOUTHEAST LOWER MICHIGAN

CITY           SKY/WX    TMP DP  RH WIND       PRES   REMARKS
ADRIAN         MOCLDY    41  38  89 SW9       30.12R
ALMA           CLOUDY    42  40  91 S6        30.05S
ANN ARBOR      FOG       34  34 100 CALM      30.11R VSB 1/4
BAD AXE        CLOUDY    37  37 100 S5        30.08R WCI  34
CARO           CLOUDY    41  39  91 S5        30.07S
DETROIT CITY   CLOUDY    43  36  76 SW6       30.12R
DETROIT        PTCLDY    38  35  89 SW6       30.12S WCI  33
FLINT          CLOUDY    46  39  76 S8        30.09S
GROSSE ILE     PTCLDY    37  36  93 S3        30.11R
HILLSDALE      CLOUDY    43  41  94 S7        30.09R
HOWELL         CLOUDY    42  39  91 S5        30.08S

CITY           SKY/WX    TMP DP  RH WIND       PRES   REMARKS
JACKSON        CLOUDY    43  39  86 S5        30.08S
LAMBERTVILLE   CLOUDY    45  37  76 SW7       30.13S
LANSING        CLOUDY    44  39  82 S7        30.08S
LAPEER         CLOUDY    45  39  79 SW8       30.08S
MASON          CLOUDY    41  38  89 CALM      30.08S
MONROE         CLEAR     39  36  87 S5        30.10S
MT. CLEMENS    CLOUDY    42  42  99 SW3       30.09S
PONTIAC        CLOUDY    42  39  89 S3        30.09S
PORT HOPE        N/A     36  34  92 S5        30.06S WCI  32
PORT HURON     CLOUDY    41  39  93 SW3       30.11S
TRI CITIES     CLOUDY    43  38  82 S7        30.06S
TROY           CLOUDY    43  38  84 SW5       30.12S
SAGINAW HB     CLOUDY    43  41  93 S8        30.06S
$$
MIZ043>046-050>051-056>058-064>065-071>073-077>080-270900-
SOUTHWEST LOWER MICHIGAN

CITY           SKY/WX    TMP DP  RH WIND       PRES   REMARKS
BATTLE CREEK   CLOUDY    45  40  82 S9        30.07F
BENTON HARBOR  CLOUDY    44  41  89 SE6       30.05S
BIG RAPIDS     CLOUDY    34  34 100 CALM      30.02R
COLDWATER      CLOUDY    44  40  87 S5        30.08S
FREMONT        CLOUDY    38  37  97 CALM      30.02S
HOLLAND        CLEAR     43  39  86 S7        30.03F
GRAND RAPIDS   MOCLDY    44  39  82 S10       30.05R
IONIA          PTSUNNY   45  40  85 S10       30.04S
KALAMAZOO      CLOUDY    44  39  82 S5        30.07S
MARSHALL       CLOUDY    43  39  88 S5        30.08R
MOUNT PLEASANT CLOUDY    35  34  96 CALM      30.04R
MUSKEGON       CLOUDY    46  41  82 S10       30.02S
SOUTH HAVEN    CLOUDY    45  41  86 S5        30.05R
$$
MIZ016>042-270900-
NORTHERN LOWER MICHIGAN

CITY           SKY/WX    TMP DP  RH WIND       PRES   REMARKS
ALPENA         CLOUDY    36  33  89 S6        30.05S WCI  31
BEAVER ISLAND  LGT RAIN  34  34 100 CALM      30.00F VSB 1
BELLAIRE       CLOUDY    37  35  91 CALM      30.02S
CADILLAC       CLOUDY    32  32 100 CALM      30.00R FOG
CHARLEVOIX     CLOUDY    37  36  96 SE5       30.03F WCI  33
FRANKFORT      CLOUDY    38  36  94 CALM      30.00S
GAYLORD        CLOUDY    34  34 100 S3        30.01S FOG
GRAYLING       CLOUDY    34  34  99 CALM      30.02F FOG
HARBOR SPRINGS DRIZZLE   35  33  95 NE3       30.01S
HOUGHTON LAKE  CLOUDY    35  33  92 CALM      30.02S
MANISTEE       CLOUDY    36  32  87 E3        30.02R
OSCODA         CLOUDY    35  34  97 CALM      30.06R
PELLSTON       LGT RAIN  34  33  96 CALM      30.02S
ROGERS CITY    CLOUDY    37  36  93 S6        30.04F WCI  33
TRAVERSE CITY  CLOUDY    39  35  86 S5        30.01S
$$
MIZ007>008-015-270900-
EASTERN UPPER MICHIGAN

CITY           SKY/WX    TMP DP  RH WIND       PRES   REMARKS
KINROSS        CLOUDY    34  34 100 CALM      30.01F VSB 1/4
MACKINAC ISLAN CLOUDY    36  36 100 S6        30.00F FOG     WCI  31
NEWBERRY       SNOW      32  32 100 N7        30.01S VSB 1/2 WCI  25
S. S. MARIE    LGT RAIN  34  33  96 CALM      30.01F VSB 1/2
MUNISING         N/A     35  32  88 N6        30.01F WCI  30
$$
MIZ004>006-011>014-085-270900-
CENTRAL UPPER MICHIGAN

CITY           SKY/WX    TMP DP  RH WIND       PRES   REMARKS
MANISTIQUE     LGT SNOW  32  32 100 N5        30.00F WCI  28
ESCANABA       CLOUDY    34  30  86 NE5       30.00S WCI  30
MENOMINEE      CLOUDY    34  32  93 NE8       29.98S WCI  27
SAWYER-GWINN   LGT SNOW  32  31  96 NE6       29.99S WCI  26
$$
MIZ001>003-009>011-084-270900-
WESTERN UPPER MICHIGAN

CITY           SKY/WX    TMP DP  RH WIND       PRES   REMARKS
IRON MOUNTAIN  LGT SNOW  32  30  92 CALM      29.97S FOG
HOUGHTON       LGT SNOW  29  26  89 NE6       30.01F FOG     WCI  23
COPPER HARBOR    N/A     33  27  78 E8        30.03F WCI  26
IRONWOOD       CLOUDY    28  27  93 CALM      29.98F
$$

ABBREVIATIONS USED IN REMARKS
   TC - TEMPERATURE IN CELSIUS
  WCI - WIND CHILL INDEX
   HX - HEAT INDEX
  VSB - VISIBILITY




USA.gov is the U.S. government's official web portal to all federal, state and local government web resources and services.